Moose Lake, MN

2:50 PM CST on December 06, 2019 (GMT -0600)
Moose Lake-Carlton County

Weather History for KMZH - November, 2019

Change the Weather History Date:

Saturday, November 16, 2019

  Actual Average Record
Temperature  
Mean Temperature 35 °F -  
Max Temperature 44 °F 38 °F 64 °F (1953)
Min Temperature 26 °F 20 °F -3 °F (1986)
Degree Days  
Heating Degree Days 30    
Moisture  
Dew Point 26 °F    
Average Humidity 66    
Maximum Humidity 93    
Minimum Humidity 51    
Precipitation  
Precipitation 0.00 in - - ()
Sea Level Pressure  
Sea Level Pressure 30.06 in    
Wind  
Wind Speed 5 mph ()    
Max Wind Speed 17 mph    
Max Gust Speed 25 mph    
Visibility 9.7 miles    
Events Rain    
Averages and records for this station are not official NWS values.
T = Trace of Precipitation, MM = Missing Value Source: Averaged Metar Reports

Daily Weather History Graph

Daily Weather History Graph

Search for Another Location

Airport or City:

Astronomy

Nov. 16, 2019 Rise Set
Actual Time 7:14 AM CST 4:37 PM CST
Civil Twilight 6:41 AM CST 5:10 PM CST
Nautical Twilight 6:04 AM CST 5:46 PM CST
Astronomical Twilight 5:28 AM CST 6:22 PM CST
Moon 8:04 PM CST (11/16) 11:14 AM CST (11/16)
Length of Visible Light 10h 29m
Length of Day
9h 23m
Waning Gibbous, 82% of the Moon is Illuminated
Nov 16
Waning Gibbous
Nov 19
Last Quarter
Nov 26
New
Dec 4
First Quarter
Dec 11
Full

Hourly Weather History & Observations

Time (CST) Temp. Windchill Dew Point Humidity Pressure Visibility Wind Dir Wind Speed Gust Speed Precip Events Conditions
12:15 AM 28.4 °F 24.6 °F 15.8 °F 59% 30.27 in 10.0 mi ENE 3.5 mph - N/A   Overcast
12:16 AM 28.4 °F 24.6 °F 15.8 °F 59% 30.27 in 10.0 mi ENE 3.5 mph - N/A   Overcast
12:35 AM 28.4 °F 24.6 °F 17.6 °F 64% 30.26 in 10.0 mi East 3.5 mph - N/A   Overcast
12:40 AM 28.4 °F - 17.6 °F 64% 30.26 in 10.0 mi Calm Calm - N/A   Overcast
12:57 AM 28.4 °F - 17.6 °F 64% 30.26 in 10.0 mi Calm Calm - N/A   Overcast
1:15 AM 28.4 °F - 17.6 °F 64% 30.25 in 10.0 mi Calm Calm - N/A   Overcast
1:35 AM 26.6 °F - 15.8 °F 64% 30.25 in 7.0 mi Calm Calm - N/A   Mostly Cloudy
1:36 AM 26.6 °F - 15.8 °F 64% 30.25 in 7.0 mi Calm Calm - N/A   Mostly Cloudy
1:55 AM 26.6 °F - 15.8 °F 64% 30.24 in 10.0 mi Calm Calm - N/A   Scattered Clouds
2:18 AM 26.6 °F - 15.8 °F 64% 30.22 in 10.0 mi Calm Calm - N/A   Clear
2:36 AM 28.4 °F - 14.0 °F 55% 30.21 in 10.0 mi Calm Calm - N/A   Clear
2:56 AM 28.4 °F 24.6 °F 14.0 °F 55% 30.20 in 10.0 mi SE 3.5 mph - N/A   Scattered Clouds
3:15 AM 30.2 °F 26.7 °F 14.0 °F 51% 30.20 in 10.0 mi SE 3.5 mph - N/A   Scattered Clouds
3:16 AM 30.2 °F 25.4 °F 14.0 °F 51% 30.20 in 10.0 mi SE 4.6 mph - N/A   Scattered Clouds
3:35 AM 30.2 °F 26.7 °F 14.0 °F 51% 30.19 in 10.0 mi SE 3.5 mph - N/A   Clear
3:40 AM 30.2 °F - 15.8 °F 55% 30.18 in 10.0 mi Calm Calm - N/A   Clear
3:57 AM 30.2 °F 26.7 °F 17.6 °F 60% 30.18 in 10.0 mi SE 3.5 mph - N/A   Clear
4:15 AM 32.0 °F 28.7 °F 17.6 °F 55% 30.17 in 10.0 mi SSE 3.5 mph - N/A   Clear
4:35 AM 32.0 °F 27.5 °F 19.4 °F 60% 30.16 in 10.0 mi SSE 4.6 mph - N/A   Clear
4:36 AM 32.0 °F 27.5 °F 19.4 °F 60% 30.16 in 10.0 mi SSE 4.6 mph - N/A   Clear
4:55 AM 32.0 °F 28.7 °F 19.4 °F 60% 30.16 in 10.0 mi South 3.5 mph - N/A   Clear
5:19 AM 32.0 °F 26.4 °F 21.2 °F 64% 30.16 in 10.0 mi South 5.8 mph - N/A   Clear
5:36 AM 32.0 °F 28.7 °F 21.2 °F 64% 30.16 in 10.0 mi SSE 3.5 mph - N/A   Clear
5:56 AM 32.0 °F 28.7 °F 21.2 °F 64% 30.16 in 10.0 mi SSE 3.5 mph - N/A   Clear
6:15 AM 32.0 °F 26.4 °F 21.2 °F 64% 30.15 in 10.0 mi South 5.8 mph - N/A   Clear
6:16 AM 32.0 °F 27.5 °F 21.2 °F 64% 30.15 in 10.0 mi South 4.6 mph - N/A   Clear
6:35 AM 32.0 °F 26.4 °F 23.0 °F 69% 30.14 in 10.0 mi SSE 5.8 mph - N/A   Clear
6:57 AM 32.0 °F 26.4 °F 23.0 °F 69% 30.14 in 10.0 mi South 5.8 mph - N/A   Clear
7:15 AM 32.0 °F 28.7 °F 23.0 °F 69% 30.14 in 10.0 mi SSE 3.5 mph - N/A   Clear
7:35 AM 32.0 °F 27.5 °F 23.0 °F 69% 30.14 in 10.0 mi South 4.6 mph - N/A   Clear
7:36 AM 32.0 °F 27.5 °F 23.0 °F 69% 30.14 in 10.0 mi South 4.6 mph - N/A   Clear
7:55 AM 32.0 °F 24.8 °F 23.0 °F 69% 30.14 in 10.0 mi South 8.1 mph - N/A   Clear
7:56 AM 32.0 °F 24.2 °F 23.0 °F 69% 30.14 in 10.0 mi South 9.2 mph - N/A   Clear
8:19 AM 32.0 °F 24.8 °F 23.0 °F 69% 30.13 in 10.0 mi SSE 8.1 mph - N/A   Clear
8:36 AM 32.0 °F 23.6 °F 24.8 °F 75% 30.12 in 10.0 mi SSE 10.4 mph 16.1 mph N/A   Clear
8:55 AM 33.8 °F 28.6 °F 24.8 °F 70% 30.12 in 10.0 mi South 5.8 mph 20.7 mph N/A   Clear
9:15 AM 33.8 °F 26.4 °F 26.6 °F 75% 30.12 in 10.0 mi South 9.2 mph 17.3 mph N/A   Clear
9:35 AM 33.8 °F 27.7 °F 26.6 °F 75% 30.11 in 10.0 mi South 6.9 mph - N/A   Clear
9:58 AM 35.6 °F 29.9 °F 26.6 °F 70% 30.11 in 10.0 mi South 6.9 mph - N/A   Scattered Clouds
10:15 AM 35.6 °F 29.9 °F 26.6 °F 70% 30.11 in 10.0 mi South 6.9 mph - N/A   Scattered Clouds
10:35 AM 37.4 °F 32.1 °F 26.6 °F 65% 30.10 in 10.0 mi South 6.9 mph - N/A   Mostly Cloudy
10:55 AM 37.4 °F 30.3 °F 28.4 °F 70% 30.09 in 10.0 mi South 10.4 mph 17.3 mph N/A   Scattered Clouds
10:56 AM 37.4 °F 30.3 °F 28.4 °F 70% 30.09 in 10.0 mi South 10.4 mph 17.3 mph N/A   Scattered Clouds
11:18 AM 41.0 °F 34.7 °F 28.4 °F 61% 30.08 in 10.0 mi South 10.4 mph 18.4 mph N/A   Clear
11:36 AM 41.0 °F 32.5 °F 28.4 °F 61% 30.07 in 10.0 mi South 17.3 mph 25.3 mph N/A   Clear
11:56 AM 42.8 °F 37.0 °F 28.4 °F 57% 30.05 in 10.0 mi SSW 10.4 mph 19.6 mph N/A   Clear
12:15 PM 41.0 °F 35.2 °F 28.4 °F 61% 30.04 in 10.0 mi South 9.2 mph 24.2 mph N/A   Clear
12:16 PM 41.0 °F 33.9 °F 28.4 °F 61% 30.04 in 10.0 mi South 12.7 mph 24.2 mph N/A   Clear
12:35 PM 41.0 °F 35.2 °F 28.4 °F 61% 30.03 in 10.0 mi South 9.2 mph 19.6 mph N/A   Clear
12:39 PM 41.0 °F 34.7 °F 28.4 °F 61% 30.02 in 10.0 mi South 10.4 mph 19.6 mph N/A   Clear
12:58 PM 41.0 °F 33.1 °F 28.4 °F 61% 30.01 in 10.0 mi SSW 15.0 mph 20.7 mph N/A   Clear
1:15 PM 41.0 °F 35.2 °F 28.4 °F 61% 30.01 in 10.0 mi South 9.2 mph 23.0 mph N/A   Clear
1:35 PM 41.0 °F 35.8 °F 28.4 °F 61% 30.00 in 10.0 mi South 8.1 mph 18.4 mph N/A   Clear
1:36 PM 41.0 °F 35.2 °F 28.4 °F 61% 30.00 in 10.0 mi South 9.2 mph 18.4 mph N/A   Clear
1:55 PM 42.8 °F 36.6 °F 28.4 °F 57% 29.99 in 10.0 mi South 11.5 mph 20.7 mph N/A   Clear
1:56 PM 42.8 °F 36.6 °F 28.4 °F 57% 29.99 in 10.0 mi South 11.5 mph 20.7 mph N/A   Clear
2:18 PM 44.6 °F 39.2 °F 28.4 °F 53% 29.99 in 10.0 mi South 10.4 mph 16.1 mph N/A   Clear
2:36 PM 42.8 °F 36.6 °F 28.4 °F 57% 29.98 in 10.0 mi South 11.5 mph 18.4 mph N/A   Clear
2:55 PM 42.8 °F 38.0 °F 28.4 °F 57% 29.97 in 10.0 mi South 8.1 mph - N/A   Clear
2:56 PM 42.8 °F 37.0 °F 28.4 °F 57% 29.97 in 10.0 mi South 10.4 mph 16.1 mph N/A   Clear
3:15 PM 42.8 °F 37.5 °F 28.4 °F 57% 29.96 in 10.0 mi South 9.2 mph 16.1 mph N/A   Clear
3:35 PM 41.0 °F 35.2 °F 28.4 °F 61% 29.96 in 10.0 mi South 9.2 mph 16.1 mph N/A   Mostly Cloudy
3:40 PM 41.0 °F 34.7 °F 28.4 °F 61% 29.96 in 10.0 mi South 10.4 mph 17.3 mph N/A   Mostly Cloudy
3:57 PM 41.0 °F 35.8 °F 28.4 °F 61% 29.95 in 10.0 mi South 8.1 mph 16.1 mph N/A   Mostly Cloudy
4:15 PM 41.0 °F 35.8 °F 28.4 °F 61% 29.95 in 10.0 mi South 8.1 mph 17.3 mph N/A   Overcast
4:35 PM 41.0 °F 35.2 °F 28.4 °F 61% 29.95 in 10.0 mi South 9.2 mph 16.1 mph N/A   Scattered Clouds
4:36 PM 41.0 °F 34.7 °F 28.4 °F 61% 29.95 in 10.0 mi South 10.4 mph 16.1 mph N/A   Scattered Clouds
4:55 PM 41.0 °F 34.3 °F 28.4 °F 61% 29.95 in 10.0 mi South 11.5 mph 17.3 mph N/A   Mostly Cloudy
4:56 PM 41.0 °F 35.2 °F 28.4 °F 61% 29.96 in 10.0 mi South 9.2 mph 17.3 mph N/A   Mostly Cloudy
5:18 PM 41.0 °F 35.2 °F 28.4 °F 61% 29.95 in 10.0 mi South 9.2 mph - N/A   Mostly Cloudy
5:36 PM 41.0 °F 35.8 °F 30.2 °F 65% 29.95 in 10.0 mi South 8.1 mph - N/A   Overcast
5:56 PM 39.2 °F 33.6 °F 30.2 °F 70% 29.95 in 10.0 mi South 8.1 mph - N/A   Scattered Clouds
6:15 PM 39.2 °F 34.2 °F 30.2 °F 70% 29.96 in 10.0 mi SSW 6.9 mph 16.1 mph N/A   Mostly Cloudy
6:16 PM 39.2 °F 33.6 °F 30.2 °F 70% 29.96 in 10.0 mi SSW 8.1 mph 16.1 mph N/A   Mostly Cloudy
6:35 PM 39.2 °F 33.0 °F 30.2 °F 70% 29.96 in 10.0 mi South 9.2 mph - N/A   Overcast
6:39 PM 39.2 °F 33.0 °F 30.2 °F 70% 29.96 in 10.0 mi South 9.2 mph - N/A   Mostly Cloudy
6:57 PM 39.2 °F 32.0 °F 30.2 °F 70% 29.96 in 10.0 mi SSW 11.5 mph 16.1 mph N/A   Mostly Cloudy
7:15 PM 39.2 °F 33.0 °F 30.2 °F 70% 29.96 in 10.0 mi South 9.2 mph 16.1 mph N/A   Scattered Clouds
7:35 PM 39.2 °F 32.5 °F 30.2 °F 70% 29.96 in 10.0 mi SSW 10.4 mph 18.4 mph N/A   Mostly Cloudy
7:36 PM 39.2 °F 33.0 °F 30.2 °F 70% 29.96 in 10.0 mi SSW 9.2 mph 18.4 mph N/A   Mostly Cloudy
7:55 PM 37.4 °F 30.3 °F 30.2 °F 75% 29.95 in 10.0 mi South 10.4 mph 20.7 mph N/A   Overcast
7:56 PM 37.4 °F 30.8 °F 30.2 °F 75% 29.95 in 10.0 mi South 9.2 mph 20.7 mph N/A   Overcast
8:19 PM 37.4 °F 31.4 °F 30.2 °F 75% 29.94 in 10.0 mi South 8.1 mph - N/A   Overcast
8:37 PM 37.4 °F 30.8 °F 30.2 °F 75% 29.94 in 10.0 mi South 9.2 mph - N/A   Overcast
8:56 PM 37.4 °F 30.8 °F 30.2 °F 75% 29.93 in 10.0 mi South 9.2 mph - N/A   Overcast
9:15 PM 37.4 °F 30.8 °F 30.2 °F 75% 29.93 in 10.0 mi South 9.2 mph - N/A   Overcast
9:35 PM 37.4 °F 30.3 °F 30.2 °F 75% 29.93 in 10.0 mi South 10.4 mph 17.3 mph N/A   Overcast
9:39 PM 37.4 °F 30.8 °F 30.2 °F 75% 29.93 in 10.0 mi SSW 9.2 mph 17.3 mph N/A   Overcast
9:57 PM 37.4 °F 31.4 °F 30.2 °F 75% 29.92 in 10.0 mi SSW 8.1 mph 17.3 mph N/A   Overcast
10:15 PM 37.4 °F 30.3 °F 32.0 °F 81% 29.92 in 10.0 mi South 10.4 mph 17.3 mph N/A   Overcast
10:16 PM 37.4 °F 30.3 °F 32.0 °F 81% 29.92 in 10.0 mi South 10.4 mph 17.3 mph N/A   Overcast
10:35 PM 37.4 °F 30.8 °F 32.0 °F 81% 29.92 in 10.0 mi SSW 9.2 mph - N/A   Overcast
10:36 PM 37.4 °F 30.8 °F 32.0 °F 81% 29.92 in 10.0 mi SSW 9.2 mph - N/A   Overcast
10:55 PM 37.4 °F 30.3 °F 32.0 °F 81% 29.91 in 7.0 mi SSW 10.4 mph 16.1 mph N/A   Drizzle
10:59 PM 37.4 °F 30.8 °F 32.0 °F 81% 29.91 in 7.0 mi SSW 9.2 mph 16.1 mph N/A   Drizzle
11:17 PM 35.6 °F 28.6 °F 32.0 °F 87% 29.91 in 4.0 mi SSW 9.2 mph - N/A Rain Rain
11:36 PM 35.6 °F 29.9 °F 32.0 °F 87% 29.91 in 4.0 mi SSW 6.9 mph - N/A Rain Light Rain
11:55 PM 33.8 °F 28.6 °F 32.0 °F 93% 29.90 in 4.0 mi SSW 5.8 mph - N/A Rain Light Rain